Location: Unspecified
(0.0000°N, 0.0000°E)
Time: 04:50:23
(UTC+02:00)

Meteor PRIRODA - Visible Passes

Search period start: 22 July 2017 00:00
Search period end: 01 August 2017 00:00
Orbit: 495 x 514 km, 97.4° (Epoch: 21 July)

Date Brightness Start Highest point End Pass type
(mag) Time Alt. Az. Time Alt. Az. Time Alt. Az.
23 Jul 6.1 06:49:27 10° NW 06:49:36 11° NW 06:49:36 11° NW visible
24 Jul 5.9 06:30:21 10° NNW 06:31:09 15° NNW 06:31:09 15° NNW visible
25 Jul 6.0 06:11:49 10° N 06:12:43 17° N 06:12:43 17° N visible
26 Jul 6.4 05:53:40 10° NNE 05:54:17 14° NNE 05:54:17 14° NNE visible
29 Jul 6.0 06:33:12 10° NNW 06:33:43 13° NNW 06:33:43 13° NNW visible
30 Jul 6.1 06:14:35 10° N 06:15:17 15° N 06:15:17 15° N visible
31 Jul 6.5 05:56:23 10° NNE 05:56:49 13° NNE 05:56:49 13° NNE visible
